weather.gov     
National Weather Service

Regional Weather Roundup
NWS Homepage
This page is being discontinued on March 12, 2014.
The same data is available at this site. Please update your bookmarks.
Thank you, and we apologize for the inconvenience.
Please send an email to SR-SRH.Webmaster@noaa.gov with any concerns.


Current Version
Previous Version:    01  02  03  04  05  06  07  08  09  10  11  12  13  14  15  16  17  18  19  20  21  22  23  24  25  26  27  28  29  30  
   31  32  33  34  35  36  37  38  39  40  41  42  43  44  45  46  47  48  49  50  51  52  53  54  55  56  57  58  59  60  
[Printable]
554
ASUS43 KLOT 240210
RWRIL

ILLINOIS REGIONAL WEATHER ROUNDUP
NATIONAL WEATHER SERVICE CHICAGO/ROMEOVILLE IL
900 PM CDT WED JUL 23 2014

NOTE: "FAIR" INDICATES FEW OR NO CLOUDS BELOW 12,000 FEET WITH NO
SIGNIFICANT WEATHER AND/OR OBSTRUCTIONS TO VISIBILITY.

* THESE STATIONS ARE NOT UNDER NWS QUALITY CONTROL. THEY ALSO MAY NOT
  REPORT WEATHER SUCH AS PRECIPITATION OR FOG.

ILZ001-002-007-009-015-016-024-240300-
NORTHWEST ILLINOIS

CITY           SKY/WX    TMP DP  RH WIND       PRES   REMARKS
MOLINE         CLEAR     74  55  51 CALM      30.13R
STERLING*      CLEAR     66  55  68 CALM      30.14R
SAVANNA*       CLEAR     71  58  64 CALM      30.13S
$$

ILZ003-004-008-010-011-017-018-240300-
NORTH CENTRAL ILLINOIS

CITY           SKY/WX    TMP DP  RH WIND       PRES   REMARKS
ROCKFORD       PTCLDY    67  55  65 E13       30.16R
FREEPORT*      CLEAR     63  58  83 CALM      30.16S
ROCHELLE*      CLEAR     66  56  69 E6        30.14S
DE KALB*       CLEAR     61  55  80 NE9       30.16R
PERU*          CLEAR     67  56  66 E7        30.14R
$$

ILZ005-006-012>014-019>023-240300-
NORTHEAST ILLINOIS

CITY           SKY/WX    TMP DP  RH WIND       PRES   REMARKS
CHICAGO-OHARE  PTCLDY    63  49  60 N12       30.13F
CHICAGO-MIDWAY PTCLDY    65  51  60 N10       30.13F
AURORA         CLEAR     63  51  65 NE8       30.15R
LANSING*       CLEAR     62  51  66 N10       30.13F
JOLIET*        CLEAR     62  50  64 NE9       30.15R
WAUKEGAN       CLEAR     60  51  72 N7        30.15S
DUPAGE AIRPORT CLEAR     62  49  62 NE12      30.14S
KANKAKEE*      CLEAR     62  52  70 N9        30.13R
WHEELING       CLEAR     63  52  67 N8        30.16F
MORRIS*        CLEAR     63  55  74 CALM      30.14R
ROMEOVILLE*    CLEAR     62  49  62 NE13      30.14S
NORTHERLY ISL    N/A     62  52  69 N13         N/A
$$

LMZ740>746-240300-
SOUTHERN LAKE MICHIGAN

STATION/POSITION SKY/WX   TEMP    WIND        PRES    VSBY  WAVE
                          AIR SEA DIR/SP/G                  HT/PER
                          (F)     (DEG/KT/KT) (MB)    (MI)  (FT/S)
SOUTHERN BUOY              60 59  360/ 17/ 21 1019.7F         5/ 6
WAUKEGAN HARBOR            61     360/ 10/ 14 1022.0S
HARRISON CRIB              63     360/ 20/ 24   N/A
BURNHAM HARBOR             62     340/ 13/ 15   N/A
CALUMET HARBOR             63     350/  9/ 13 1019.1S
MICHIGAN CITY              63     360/ 21/ 24   N/A
MICHIGAN CITY 6N           64 69   20/ 17/ 23   N/A           8/ 2
ST. JOSEPH                 58 53   10/ 10/ 14   N/A           6/ 2
$$

ILZ025>027-034>036-040-047-049-050-058-095>099-240300-
WEST-CENTRAL ILLINOIS

CITY           SKY/WX    TMP DP  RH WIND       PRES   REMARKS
QUINCY         CLEAR     68  60  75 N6        30.13S
GALESBURG*     CLEAR     65  58  78 N3        30.14R
MACOMB*        CLEAR     65  61  85 N3        30.16R
JACKSONVILLE*  PTCLDY    70  61  72 N5        30.13R
PITTSFIELD*    CLEAR     70  60  71 CALM      30.14R
$$

ILZ028>032-037-038-041>044-048-051>054-059>061-240300-
CENTRAL ILLINOIS

CITY           SKY/WX    TMP DP  RH WIND       PRES   REMARKS
PONTIAC        CLEAR     64  57  77 E3        30.14R
DECATUR        CLEAR     68  54  60 NE8       30.13R
PEORIA         CLEAR     72  56  57 N3        30.12R
LACON*         CLEAR     65  58  77 CALM      30.12R
LINCOLN*       CLEAR     66  58  75 CALM      30.10R
SPRINGFIELD    CLEAR     69  58  67 N6        30.12R
TAYLORVILLE    CLEAR     66  55  68 NE7       30.12R
$$

ILZ033-039-045-046-055>057-062-063-240300-
EAST-CENTRAL ILLINOIS

CITY           SKY/WX    TMP DP  RH WIND       PRES   REMARKS
CHAMPAIGN      CLEAR     65  51  60 NE10      30.12R
DANVILLE*      CLEAR     59  51  74 N9        30.08S
RANTOUL*       CLEAR     66  50  57 NE9       30.14R
MATTOON        CLEAR     64  50  60 N12       30.10R
PARIS*         CLEAR     64  49  57 N9        30.11R
$$

ILZ079-100>102-240300-
SOUTHWEST ILLINOIS

CITY           SKY/WX    TMP DP  RH WIND       PRES   REMARKS
ALTON          CLEAR     72  63  73 NE7       30.11R
BELLEVILLE     PTCLDY    73  63  70 N6        30.09R
CAHOKIA*       CLOUDY    77  61  57 NE7       30.10R
SPARTA*        CLOUDY    73  63  68 N6        30.09R
$$

ILZ064>066-069>071-074>076-080>082-084>086-088>090-092>094-240300-
SOUTH-CENTRAL ILLINOIS

CITY           SKY/WX    TMP DP  RH WIND       PRES   REMARKS
CARBONDALE     CLOUDY    77  66  68 N9        30.06R
CAIRO*         MOCLDY    76  70  83 N5        30.03R
EFFINGHAM*     CLEAR     67  50  53 N7        30.10R
MARION         MOCLDY    75  68  78 N3        30.06R
MT. VERNON     CLEAR     72  57  60 N7        30.08R
CENTRALIA*     CLEAR     70  57  63 N9        30.09R
SALEM*         CLEAR     71  59  66 N9        30.10R
METROPOLIS*    CLOUDY    76  66  71 N6        30.03R
$$

ILZ067-068-072-073-078-083-087-091-240300-
SOUTHEAST ILLINOIS

CITY           SKY/WX    TMP DP  RH WIND       PRES   REMARKS
LAWRENCEVILLE  CLEAR     70  58  65 N13       30.05R
FLORA*         CLEAR     68  56  66 N9        30.08R
FAIRFIELD*     CLEAR     72  64  78 N8        30.06R
HARRISBURG*    MOCLDY    74  72  93 CALM      30.05R
ROBINSON*      CLEAR     68  58  68 N9        30.08R
CARMI*         CLOUDY    72  72 100 N7        30.03R
$$

ABBREVIATIONS USED IN REMARKS
   TC - TEMPERATURE IN CELSIUS
  WCI - WIND CHILL INDEX
   HX - HEAT INDEX
  VSB - VISIBILITY
$$





U.S. Dept. of Commerce
NOAA National Weather Service
1325 East West Highway
Silver Spring, MD 20910
E-mail: w-nws.webmaster@noaa.gov
Page last modified: May 16, 2007
NATIONAL WEATHER SERVICE: for Safety, for Work, for Fun - FOR LIFE